Flag for U.S.A. Weather past 2 weeks in Mountain View, California, U.S.A.

Now
73 °F

Sunny.


Feels Like: 76 °F
Forecast: 59 / 85 °F
Wind: 3 mph from North

Location: Moffett Field

Current Time: Jul 24, 2014 at 11:27:15 AM

Latest Report: Jul 24, 2014 at 10:56 AM


Visibility: 10 mi

Pressure: 30.00 "Hg

Humidity: 62%

Dew point: 59 °F

Location of Mountain ViewLocation

Historic Weather in Mountain View — Graph

°F

Mountain View temperature yesterday

Maximum temperature yesterday: 77 °F (at 1:56 PM)
Minimum temperature yesterday: 62 °F (at 4:56 AM)
Average temperature yesterday: 69 °F

Past Weeks' High & Low Weather Summary

 TemperatureHumidityPressure
High81 °F (Jul 14, 12:56 PM)90% (Jul 24, 5:56 AM)30.15 "Hg (Jul 24, 5:56 AM)
Low59 °F (Jul 13, 4:56 AM)48% (Jul 17, 4:56 PM)29.86 "Hg (Jul 9, 5:56 PM)
Average68 °F70%29.99 "Hg
* Reported Jul 9 9:56 AM — Jul 24 9:56 AM, Mountain View, Weather by CustomWeather, © 2014

Note: Actual official high and low records may vary slightly from our data, if they occured in-between our weather recording intervals... More about our weather records

Advertising

Mountain View weather history for previous 24 hours

 ConditionsComfort  
Time TempWeatherWind HumidityBarometerVisibility
9:56 AM
Jul 24
69 °FSunny.6 mph73%30.02 "Hg10 mi
8:56 AM65 °FPassing clouds.5 mph81%30.03 "Hg10 mi
7:56 AM63 °FPartly sunny.No wind87%30.04 "Hg10 mi
6:56 AM62 °FPassing clouds.No wind90%30.03 "Hg10 mi
5:56 AM61 °FClear.No wind90%30.03 "Hg10 mi
4:56 AM62 °FPassing clouds.6 mph86%30.03 "Hg10 mi
3:56 AM63 °FClear.No wind84%30.03 "Hg10 mi
2:56 AM63 °FClear.3 mph84%30.05 "Hg10 mi
1:56 AM64 °FClear.3 mph81%30.05 "Hg10 mi
12:56 AM65 °FClear.3 mph76%30.07 "Hg10 mi
11:56 PM
Jul 23
66 °FClear.5 mph70%30.07 "Hg10 mi
10:56 PM67 °FClear.5 mph63%30.06 "Hg10 mi
9:56 PM68 °FClear.5 mph63%30.07 "Hg10 mi
8:56 PM67 °FSunny.9 mph68%30.07 "Hg10 mi
7:56 PM70 °FSunny.8 mph61%30.06 "Hg10 mi
6:56 PM72 °FSunny.15 mph66%30.06 "Hg10 mi
5:56 PM75 °FSunny.16 mph64%30.06 "Hg10 mi
4:56 PM75 °FSunny.21 mph64%30.07 "Hg10 mi
3:56 PM76 °FSunny.16 mph62%30.08 "Hg10 mi
2:56 PM75 °FSunny.17 mph60%30.11 "Hg10 mi
1:56 PM77 °FSunny.15 mph56%30.12 "Hg10 mi
12:56 PM76 °FSunny.12 mph56%30.13 "Hg10 mi
11:56 AM75 °FSunny.8 mph55%30.14 "Hg10 mi
Weather by CustomWeather, © 2014

See weather overviewHow to use our weather pages